Chihuahua, Mexico

8:31 PM MDT on June 22, 2017 (GMT -0600)
Gen Div P A Roberto Fierro

Weather History for MMCU - May, 2013

Change the Weather History Date:

Thursday, May 16, 2013

  Actual Average Record
Temperature  
Mean Temperature 76 °F -  
Max Temperature 92 °F 88 °F 100 °F (2000)
Min Temperature 61 °F 56 °F 44 °F (2005)
Cooling Degree Days 12    
Growing Degree Days 26 (Base 50)    
Moisture  
Dew Point 33 °F    
Average Humidity 17    
Maximum Humidity 29    
Minimum Humidity 7    
Precipitation  
Precipitation 0.00 in - - ()
Sea Level Pressure  
Sea Level Pressure 29.84 in    
Wind  
Wind Speed 6 mph ()    
Max Wind Speed 16 mph    
Max Gust Speed -    
Visibility 7.8 miles    
Events      
Averages and records for this station are not official NWS values.
T = Trace of Precipitation, MM = Missing Value Source: Averaged Metar Reports

Daily Weather History Graph

Daily Weather History Graph

Search for Another Location

Airport or City:

Trip Planner

Search our weather history database for the weather conditions in past years. The results will help you decide how hot, cold, wet, or windy it might be!

Date:

Astronomy

May. 16, 2013 Rise Set
Actual Time 6:12 AM MDT 7:48 PM MDT
Civil Twilight 5:46 AM MDT 8:14 PM MDT
Nautical Twilight 5:15 AM MDT 8:45 PM MDT
Astronomical Twilight 4:43 AM MDT 9:18 PM MDT
Moon 11:39 AM MDT (5/16) 12:18 AM MDT (5/16)
Length of Visible Light 14h 28m
Length of Day
13h 36m
Waxing Crescent, 36% of the Moon is Illuminated
May 16
Waxing Crescent
May 17
First Quarter
May 24
Full
May 31
Last Quarter
Jun 8
New

Hourly Weather History & Observations

Time (MDT) Temp. Dew Point Humidity Pressure Visibility Wind Dir Wind Speed Gust Speed Precip Events Conditions
2:45 AM 68 °F 36 °F 20% 29.63 in 1 mi WNW 6.7 mph - -  
4:40 AM 59.0 °F 24.8 °F 27% 30.07 in 10.0 mi WSW 3.5 mph - N/A   Clear
5:40 AM 62 °F 36 °F 26% 29.70 in 2 mi WNW 2.2 mph - -  
5:40 AM 53.6 °F 19.4 °F 26% 29.81 in 10.0 mi SSE 9.2 mph - N/A   Clear
6:40 AM 55.4 °F 23.0 °F 29% 30.09 in 10.0 mi South 8.1 mph - N/A   Clear
7:45 AM 66.2 °F 30.2 °F 26% 30.11 in 10.0 mi South 3.5 mph - N/A   Clear
8:44 AM 73.4 °F 33.8 °F 23% 29.84 in 10.0 mi Calm Calm - N/A   Clear
8:45 AM 77 °F 37 °F 14% 29.76 in 6 mi SSE 2.2 mph - -  
9:46 AM 80.6 °F 33.8 °F 18% 30.12 in 10.0 mi North 9.2 mph - N/A   Clear
10:40 AM 82.4 °F 35.6 °F 19% 30.12 in 10.0 mi North 16.1 mph - N/A   Clear
11:40 AM 84.2 °F 33.8 °F 16% 29.80 in 10.0 mi North 11.5 mph - N/A   Clear
11:45 AM 83 °F 42 °F 15% 29.74 in 6 mi ENE 13.4 mph - -  
12:43 PM 86.0 °F 33.8 °F 15% 30.08 in 10.0 mi ENE 9.2 mph - N/A   Partly Cloudy
1:43 PM 87.8 °F 33.8 °F 15% 30.05 in 10.0 mi SE 5.8 mph - N/A   Partly Cloudy
2:40 PM 90 °F 40 °F 10% 29.63 in 6 mi ESE 2.2 mph - -  
2:45 PM 89.6 °F 32.0 °F 13% 29.77 in 10.0 mi WSW 5.8 mph - N/A   Partly Cloudy
3:40 PM 91.4 °F 33.8 °F 13% 29.98 in 10.0 mi NNE 11.5 mph - N/A   Partly Cloudy
4:40 PM 91.4 °F 32.0 °F 12% 29.96 in 10.0 mi East 15.0 mph - N/A   Partly Cloudy
5:40 PM 91 °F 36 °F 7% 29.49 in 2 mi ENE 4.5 mph - -   Scattered Clouds
5:40 PM 91.4 °F 32.0 °F 12% 29.70 in 10.0 mi ENE 10.4 mph - N/A   Partly Cloudy
6:40 PM 89.6 °F 32.0 °F 13% 29.92 in 10.0 mi East 16.1 mph - N/A   Clear
7:40 PM 84.2 °F 32.0 °F 15% 29.94 in 10.0 mi East 4.6 mph - N/A   Clear
8:40 PM 78.8 °F 32.0 °F 18% 29.65 in 10.0 mi East 9.2 mph - N/A   Clear
8:45 PM 83 °F 38 °F 12% 29.47 in 1 mi East 2.2 mph - -  
11:30 PM 78 °F 40 °F 16% 29.51 in 1 mi West 8.9 mph - -